Location: Marcé
(47.5801°N, 0.3280°W)
Time: 00:20:01
(UTC+01:00)

S-56A Canister/Altair - Pass Details

Date: 02 December 2021
Orbit: 633 x 2499 km, 38.9° (Epoch: 17 January)

Event Time Altitude Azimuth Distance (km) Brightness Sun altitude
Rises 22:37:14 0° 186° (S) 5,501 - -53.1°
Reaches altitude 10° 22:45:36 10° 153° (SSE) 3,922 - -54.2°
Maximum altitude 22:47:08 10° 144° (SE) 3,767 - -54.4°
Drops below altitude 10° 22:48:36 10° 135° (SE) 3,682 - -54.6°
Sets 22:54:53 0° 99° (E) 4,118 - -55.5°
